This is the latest recevied weather packets stored in our database for station/object N3LF. If no packets are shown the sender has not sent any weather packets the latest 10 day(s).
| Time | Temp. | Humidity | Pressure | Rain* | Wind** | Luminosity | Snow |
|---|---|---|---|---|---|---|---|
| 1777839388 | 21.11° C | 36% | 1020.6 hPa | 0 mm | - | 562 W/m² | - |
| 1777839086 | 20° C | 37% | 1020.7 hPa | 0 mm | - | 576 W/m² | - |
| 1777838781 | 20.56° C | 38% | 1020.9 hPa | 0 mm | - | 588 W/m² | - |
| 1777838478 | 20° C | 37% | 1020.8 hPa | 0 mm | - | 599 W/m² | - |
| 1777838175 | 21.11° C | 36% | 1020.9 hPa | 0 mm | - | 605 W/m² | - |
| 1777837872 | 21.11° C | 34% | 1020.9 hPa | 0 mm | - | 613 W/m² | - |
| 1777837569 | 20.56° C | 36% | 1021.2 hPa | 0 mm | - | 623 W/m² | - |
| 1777837264 | 20° C | 39% | 1021.4 hPa | 0 mm | - | 633 W/m² | - |
| 1777836961 | 20° C | 37% | 1021.5 hPa | 0 mm | - | 641 W/m² | - |
| 1777836656 | 20° C | 38% | 1021.7 hPa | 0 mm | - | 652 W/m² | - |
| 1777836352 | 19.44° C | 38% | 1021.6 hPa | 0 mm | - | 661 W/m² | - |
| 1777836048 | 19.44° C | 38% | 1021.7 hPa | 0 mm | - | 665 W/m² | - |
| 1777835745 | 20° C | 38% | 1021.8 hPa | 0 mm | - | 672 W/m² | - |
| 1777835443 | 20° C | 38% | 1021.9 hPa | 0 mm | - | 681 W/m² | - |
| 1777835139 | 20.56° C | 38% | 1022.1 hPa | 0 mm | - | 688 W/m² | - |
| 1777834837 | 19.44° C | 38% | 1022 hPa | 0 mm | - | 692 W/m² | - |
| 1777834533 | 18.89° C | 38% | 1022.2 hPa | 0 mm | - | 699 W/m² | - |
| 1777834232 | 18.89° C | 39% | 1022.1 hPa | 0 mm | - | 705 W/m² | - |
| 1777833929 | 20° C | 42% | 1022.1 hPa | 0 mm | - | 710 W/m² | - |
| 1777833626 | 18.89° C | 39% | 1022.1 hPa | 0 mm | - | 713 W/m² | - |
| 1777833322 | 20° C | 37% | 1022.2 hPa | 0 mm | - | 717 W/m² | - |
| 1777833019 | 20° C | 40% | 1022.1 hPa | 0 mm | - | 719 W/m² | - |
| 1777832718 | 18.33° C | 38% | 1022.4 hPa | 0 mm | - | 726 W/m² | - |
| 1777832415 | 18.33° C | 39% | 1022.2 hPa | 0 mm | - | 728 W/m² | - |
| 1777832112 | 18.89° C | 38% | 1022.4 hPa | 0 mm | - | 732 W/m² | - |
* Rain latest hour (hover to see other rain measurements)
** Current wind speed in m/s (hover to see current wind gust speed)